This is the latest recevied weather packets stored in our database for station/object N8SDR. If no packets are shown the sender has not sent any weather packets the latest 10 day(s).
| Time | Temp. | Humidity | Pressure | Rain* | Wind** | Luminosity | Snow |
|---|---|---|---|---|---|---|---|
| 1777758053 | 11.67° C | 49% | 1013.7 hPa | 0 mm | - | 159 W/m² | - |
| 1777757750 | 11.11° C | 48% | 1013.8 hPa | 0 mm | - | 474 W/m² | - |
| 1777757448 | 11.11° C | 50% | 1013.7 hPa | 0 mm | - | 151 W/m² | - |
| 1777757146 | 11.67° C | 48% | 1013.7 hPa | 0 mm | - | 144 W/m² | - |
| 1777756844 | 11.11° C | 49% | 1013.6 hPa | 0 mm | - | 162 W/m² | - |
| 1777756539 | 11.67° C | 48% | 1013.3 hPa | 0 mm | - | 193 W/m² | - |
| 1777756237 | 11.67° C | 47% | 1013.4 hPa | 0 mm | - | 199 W/m² | - |
| 1777755933 | 11.67° C | 48% | 1013.6 hPa | 0 mm | - | 275 W/m² | - |
| 1777755631 | 11.67° C | 46% | 1013.2 hPa | 0 mm | - | 192 W/m² | - |
| 1777755327 | 12.22° C | 46% | 1013.2 hPa | 0 mm | - | 217 W/m² | - |
| 1777755024 | 11.67° C | 46% | 1013.4 hPa | 0 mm | - | 385 W/m² | - |
| 1777754721 | 11.67° C | 46% | 1013.6 hPa | 0 mm | - | 325 W/m² | - |
| 1777754419 | 11.67° C | 47% | 1013.4 hPa | 0 mm | - | 209 W/m² | - |
| 1777754115 | 11.67° C | 46% | 1013.3 hPa | 0 mm | - | 737 W/m² | - |
| 1777753813 | 12.22° C | 46% | 1013.4 hPa | 0 mm | - | 211 W/m² | - |
| 1777753508 | 12.22° C | 46% | 1013.6 hPa | 0 mm | - | 225 W/m² | - |
| 1777753207 | 11.67° C | 48% | 1013.7 hPa | 0 mm | - | 250 W/m² | - |
| 1777752903 | 11.67° C | 49% | 1013.9 hPa | 0 mm | - | 209 W/m² | - |
| 1777752599 | 12.78° C | 48% | 1013.7 hPa | 0 mm | - | 727 W/m² | - |
| 1777752295 | 13.33° C | 45% | 1013.7 hPa | 0 mm | - | 730 W/m² | - |
| 1777751993 | 12.22° C | 45% | 1013.9 hPa | 0 mm | - | 773 W/m² | - |
| 1777751691 | 11.67° C | 48% | 1013.6 hPa | 0 mm | - | 764 W/m² | - |
| 1777751386 | 11.67° C | 49% | 1013.9 hPa | 0 mm | - | 271 W/m² | - |
| 1777751083 | 11.67° C | 48% | 1013.9 hPa | 0 mm | - | 222 W/m² | - |
| 1777750779 | 11.67° C | 48% | 1013.7 hPa | 0 mm | - | 783 W/m² | - |
* Rain latest hour (hover to see other rain measurements)
** Current wind speed in m/s (hover to see current wind gust speed)